Wetterdaten: Woche 14.01.13 - 20.01.13 (KW3)
Datum Zeit Temp. Aussen +5cm Feuchte Auss BlattFeu 1 Luftdruck Regen Sonnenschein UV Solar Windben
14.01.2013 00:00 -1,7 C -2,7 C 92 % 0 lf 1016,1 hPa 0,0 l/m 0,00 h 0,0 UV-I 0 W/m 0,2 km/h (0 Bft)
14.01.2013 01:00 -1,8 C -2,7 C 93 % 0 lf 1015,8 hPa 0,0 l/m 0,00 h 0,0 UV-I 0 W/m 0,8 km/h (0 Bft)
14.01.2013 02:00 -1,9 C -3,2 C 94 % 0 lf 1015,6 hPa 0,0 l/m 0,00 h 0,0 UV-I 0 W/m 0,2 km/h (0 Bft)
14.01.2013 03:00 -2,0 C -3,2 C 95 % 1 lf 1015,4 hPa 0,0 l/m 0,00 h 0,0 UV-I 0 W/m 0,3 km/h (0 Bft)
14.01.2013 04:00 -2,3 C -3,4 C 96 % 1 lf 1015,0 hPa 0,0 l/m 0,00 h 0,0 UV-I 0 W/m 0,8 km/h (0 Bft)
14.01.2013 05:00 -2,6 C -4,2 C 96 % 1 lf 1014,6 hPa 0,0 l/m 0,00 h 0,0 UV-I 0 W/m 0,1 km/h (0 Bft)
14.01.2013 06:00 -3,1 C -4,4 C 96 % 1 lf 1014,4 hPa 0,0 l/m 0,00 h 0,0 UV-I 0 W/m 0,0 km/h (0 Bft)
14.01.2013 07:00 -3,1 C -3,8 C 96 % 1 lf 1014,4 hPa 0,0 l/m 0,00 h 0,0 UV-I 0 W/m 0,1 km/h (0 Bft)
14.01.2013 08:00 -2,8 C -3,3 C 97 % 1 lf 1014,6 hPa 0,0 l/m 0,00 h 0,0 UV-I 0 W/m 0,0 km/h (0 Bft)
14.01.2013 09:00 -2,7 C -3,4 C 97 % 0 lf 1014,6 hPa 0,0 l/m 0,00 h 0,0 UV-I 15 W/m 0,9 km/h (0 Bft)
14.01.2013 10:00 -2,5 C -2,9 C 96 % 0 lf 1014,6 hPa 0,0 l/m 0,00 h 0,0 UV-I 31 W/m 0,6 km/h (0 Bft)
14.01.2013 11:00 -2,2 C -2,4 C 92 % 0 lf 1014,4 hPa 0,0 l/m 0,00 h 0,0 UV-I 50 W/m 1,6 km/h (1 Bft)
14.01.2013 12:00 -1,9 C -2,5 C 88 % 0 lf 1013,8 hPa 0,0 l/m 0,00 h 0,0 UV-I 41 W/m 2,0 km/h (1 Bft)
14.01.2013 13:00 -1,9 C -2,4 C 89 % 0 lf 1013,3 hPa 0,0 l/m 0,00 h 0,0 UV-I 57 W/m 2,3 km/h (1 Bft)
14.01.2013 14:00 -1,7 C -2,1 C 84 % 0 lf 1012,9 hPa 0,0 l/m 0,00 h 0,0 UV-I 87 W/m 3,2 km/h (1 Bft)
14.01.2013 15:00 -1,7 C -2,5 C 83 % 0 lf 1012,8 hPa 0,0 l/m 0,00 h 0,0 UV-I 48 W/m 1,8 km/h (1 Bft)
14.01.2013 16:00 -2,1 C -3,4 C 82 % 0 lf 1012,6 hPa 0,0 l/m 0,00 h 0,0 UV-I 11 W/m 0,4 km/h (0 Bft)
14.01.2013 17:00 -2,7 C -4,1 C 82 % 0 lf 1012,4 hPa 0,0 l/m 0,00 h 0,0 UV-I 0 W/m 0,7 km/h (0 Bft)
14.01.2013 18:00 -3,3 C -5,1 C 84 % 0 lf 1012,0 hPa 0,0 l/m 0,00 h 0,0 UV-I 0 W/m 0,2 km/h (0 Bft)
14.01.2013 19:00 -4,1 C -5,9 C 86 % 0 lf 1011,4 hPa 0,0 l/m 0,00 h 0,0 UV-I 0 W/m 0,5 km/h (0 Bft)
14.01.2013 20:00 -4,7 C -6,0 C 89 % 0 lf 1010,7 hPa 0,0 l/m 0,00 h 0,0 UV-I 0 W/m 2,0 km/h (1 Bft)
14.01.2013 21:00 -4,9 C -5,8 C 90 % 0 lf 1009,7 hPa 0,0 l/m 0,00 h 0,0 UV-I 0 W/m 6,9 km/h (2 Bft)
14.01.2013 22:00 -4,6 C -5,3 C 91 % 0 lf 1009,0 hPa 0,0 l/m 0,00 h 0,0 UV-I 0 W/m 6,9 km/h (2 Bft)
14.01.2013 23:00 -4,2 C -4,9 C 89 % 0 lf 1008,3 hPa 0,0 l/m 0,00 h 0,0 UV-I 0 W/m 12,3 km/h (3 Bft)
15.01.2013 00:00 -3,6 C -4,3 C 88 % 0 lf 1007,3 hPa 0,0 l/m 0,00 h 0,0 UV-I 0 W/m 12,8 km/h (3 Bft)
15.01.2013 01:00 -3,3 C -4,3 C 87 % 0 lf 1006,4 hPa 0,0 l/m 0,00 h 0,0 UV-I 0 W/m 11,9 km/h (2 Bft)
15.01.2013 02:00 -3,2 C -4,1 C 86 % 0 lf 1006,1 hPa 0,0 l/m 0,00 h 0,0 UV-I 0 W/m 11,8 km/h (2 Bft)
15.01.2013 03:00 -3,3 C -4,2 C 90 % 0 lf 1005,5 hPa 0,0 l/m 0,00 h 0,0 UV-I 0 W/m 10,0 km/h (2 Bft)
15.01.2013 04:00 -3,5 C -4,3 C 95 % 0 lf 1004,6 hPa 0,0 l/m 0,00 h 0,0 UV-I 0 W/m 12,7 km/h (3 Bft)
15.01.2013 05:00 -3,4 C -4,1 C 96 % 0 lf 1003,9 hPa 0,0 l/m 0,00 h 0,0 UV-I 0 W/m 14,9 km/h (3 Bft)
15.01.2013 06:00 -3,2 C -3,8 C 97 % 0 lf 1003,7 hPa 1,2 l/m 0,00 h 0,0 UV-I 0 W/m 19,6 km/h (3 Bft)
15.01.2013 07:00 -2,9 C -3,8 C 96 % 0 lf 1003,7 hPa 0,2 l/m 0,00 h 0,0 UV-I 0 W/m 17,5 km/h (3 Bft)
15.01.2013 08:00 -2,8 C -3,8 C 95 % 0 lf 1004,0 hPa 0,0 l/m 0,00 h 0,0 UV-I 0 W/m 14,7 km/h (3 Bft)
15.01.2013 09:00 -2,7 C -3,3 C 95 % 0 lf 1004,4 hPa 0,0 l/m 0,00 h 0,0 UV-I 7 W/m 9,5 km/h (2 Bft)
15.01.2013 10:00 -2,3 C -2,9 C 95 % 0 lf 1004,6 hPa 0,0 l/m 0,00 h 0,0 UV-I 16 W/m 7,5 km/h (2 Bft)
15.01.2013 11:00 -1,9 C -2,3 C 94 % 0 lf 1004,9 hPa 0,0 l/m 0,00 h 0,0 UV-I 31 W/m 7,8 km/h (2 Bft)
15.01.2013 12:00 -1,2 C -1,2 C 93 % 8 lf 1004,6 hPa 0,0 l/m 0,00 h 0,0 UV-I 59 W/m 3,5 km/h (1 Bft)
15.01.2013 13:00 -0,5 C -1,0 C 90 % 11 lf 1004,5 hPa 0,0 l/m 0,00 h 0,0 UV-I 59 W/m 2,1 km/h (1 Bft)
15.01.2013 14:00 -0,5 C -1,5 C 90 % 2 lf 1004,6 hPa 0,2 l/m 0,00 h 0,0 UV-I 32 W/m 0,1 km/h (0 Bft)
15.01.2013 15:00 -0,8 C -1,9 C 92 % 2 lf 1004,9 hPa 0,0 l/m 0,00 h 0,0 UV-I 23 W/m 1,7 km/h (1 Bft)
15.01.2013 16:00 -1,4 C -2,5 C 95 % 2 lf 1005,3 hPa 0,2 l/m 0,00 h 0,0 UV-I 9 W/m 2,6 km/h (1 Bft)
15.01.2013 17:00 -1,8 C -2,7 C 96 % 3 lf 1005,7 hPa 0,2 l/m 0,00 h 0,0 UV-I 0 W/m 3,8 km/h (1 Bft)
15.01.2013 18:00 -2,2 C -2,8 C 97 % 3 lf 1005,8 hPa 0,2 l/m 0,00 h 0,0 UV-I 0 W/m 5,6 km/h (1 Bft)
15.01.2013 19:00 -2,5 C -3,2 C 97 % 2 lf 1006,1 hPa 0,0 l/m 0,00 h 0,0 UV-I 0 W/m 6,9 km/h (2 Bft)
15.01.2013 20:00 -2,8 C -3,2 C 97 % 2 lf 1006,4 hPa 0,0 l/m 0,00 h 0,0 UV-I 0 W/m 5,2 km/h (1 Bft)
15.01.2013 21:00 -3,2 C -3,2 C 97 % 2 lf 1006,6 hPa 0,0 l/m 0,00 h 0,0 UV-I 0 W/m 3,0 km/h (1 Bft)
15.01.2013 22:00 -3,3 C -3,2 C 97 % 2 lf 1006,7 hPa 0,0 l/m 0,00 h 0,0 UV-I 0 W/m 7,9 km/h (2 Bft)
15.01.2013 23:00 -3,6 C -3,2 C 97 % 1 lf 1006,9 hPa 0,0 l/m 0,00 h 0,0 UV-I 0 W/m 9,9 km/h (2 Bft)
16.01.2013 00:00 -3,7 C -3,2 C 97 % 1 lf 1007,3 hPa 0,0 l/m 0,00 h 0,0 UV-I 0 W/m 5,1 km/h (1 Bft)
16.01.2013 01:00 -3,9 C -3,2 C 97 % 1 lf 1007,5 hPa 0,0 l/m 0,00 h 0,0 UV-I 0 W/m 8,2 km/h (2 Bft)
16.01.2013 02:00 -3,9 C -3,2 C 97 % 1 lf 1007,8 hPa 0,0 l/m 0,00 h 0,0 UV-I 0 W/m 6,2 km/h (2 Bft)
16.01.2013 03:00 -3,9 C -3,2 C 97 % 1 lf 1007,9 hPa 0,0 l/m 0,00 h 0,0 UV-I 0 W/m 3,6 km/h (1 Bft)
16.01.2013 04:00 -4,0 C -3,2 C 97 % 1 lf 1007,9 hPa 0,0 l/m 0,00 h 0,0 UV-I 0 W/m 5,6 km/h (1 Bft)
16.01.2013 05:00 -4,1 C -3,2 C 97 % 1 lf 1007,8 hPa 2,2 l/m 0,00 h 0,0 UV-I 0 W/m 3,8 km/h (1 Bft)
16.01.2013 06:00 -4,2 C -3,2 C 97 % 1 lf 1007,9 hPa 0,0 l/m 0,00 h 0,0 UV-I 0 W/m 7,0 km/h (2 Bft)
16.01.2013 07:00 -4,5 C -4,3 C 97 % 1 lf 1008,2 hPa 0,0 l/m 0,00 h 0,0 UV-I 0 W/m 4,4 km/h (1 Bft)
16.01.2013 08:00 -4,6 C -5,4 C 97 % 1 lf 1008,8 hPa 0,0 l/m 0,00 h 0,0 UV-I 0 W/m 2,1 km/h (1 Bft)
16.01.2013 09:00 -4,5 C -5,2 C 97 % 1 lf 1009,3 hPa 0,2 l/m 0,00 h 0,0 UV-I 9 W/m 1,5 km/h (1 Bft)
16.01.2013 10:00 -4,0 C -4,6 C 97 % 1 lf 1009,6 hPa 0,0 l/m 0,00 h 0,0 UV-I 10 W/m 1,8 km/h (1 Bft)
16.01.2013 11:00 -3,9 C -4,5 C 96 % 1 lf 1009,8 hPa 0,0 l/m 0,00 h 0,0 UV-I 12 W/m 3,3 km/h (1 Bft)
16.01.2013 12:00 -3,5 C -4,2 C 95 % 1 lf 1009,8 hPa 0,0 l/m 0,00 h 0,0 UV-I 13 W/m 1,5 km/h (1 Bft)
16.01.2013 13:00 -3,4 C -4,3 C 94 % 1 lf 1009,7 hPa 0,0 l/m 0,00 h 0,0 UV-I 11 W/m 3,8 km/h (1 Bft)
16.01.2013 14:00 -3,3 C -3,9 C 94 % 1 lf 1009,7 hPa 0,0 l/m 0,00 h 0,0 UV-I 13 W/m 1,2 km/h (1 Bft)
16.01.2013 15:00 -3,2 C -4,3 C 94 % 1 lf 1010,4 hPa 0,0 l/m 0,00 h 0,0 UV-I 7 W/m 3,7 km/h (1 Bft)
16.01.2013 16:00 -3,4 C -4,3 C 94 % 1 lf 1011,0 hPa 0,0 l/m 0,00 h 0,0 UV-I 0 W/m 4,4 km/h (1 Bft)
16.01.2013 17:00 -3,6 C -4,8 C 95 % 1 lf 1011,6 hPa 0,0 l/m 0,00 h 0,0 UV-I 0 W/m 3,0 km/h (1 Bft)
16.01.2013 18:00 -3,6 C -4,8 C 95 % 1 lf 1012,1 hPa 0,0 l/m 0,00 h 0,0 UV-I 0 W/m 5,6 km/h (1 Bft)
16.01.2013 19:00 -3,6 C -4,8 C 95 % 1 lf 1012,5 hPa 0,0 l/m 0,00 h 0,0 UV-I 0 W/m 8,7 km/h (2 Bft)
16.01.2013 20:00 -3,6 C -4,6 C 95 % 1 lf 1012,9 hPa 0,0 l/m 0,00 h 0,0 UV-I 0 W/m 7,1 km/h (2 Bft)
16.01.2013 21:00 -3,5 C -4,3 C 95 % 1 lf 1013,3 hPa 0,0 l/m 0,00 h 0,0 UV-I 0 W/m 6,1 km/h (2 Bft)
16.01.2013 22:00 -3,4 C -4,3 C 96 % 1 lf 1013,6 hPa 0,0 l/m 0,00 h 0,0 UV-I 0 W/m 4,3 km/h (1 Bft)
16.01.2013 23:00 -3,3 C -4,3 C 96 % 1 lf 1013,9 hPa 0,0 l/m 0,00 h 0,0 UV-I 0 W/m 1,8 km/h (1 Bft)
17.01.2013 00:00 -3,4 C -4,3 C 96 % 1 lf 1014,3 hPa 0,0 l/m 0,00 h 0,0 UV-I 0 W/m 5,2 km/h (1 Bft)
17.01.2013 01:00 -3,6 C -4,6 C 95 % 1 lf 1014,5 hPa 0,0 l/m 0,00 h 0,0 UV-I 0 W/m 7,1 km/h (2 Bft)
17.01.2013 02:00 -3,8 C -4,9 C 95 % 1 lf 1015,0 hPa 0,0 l/m 0,00 h 0,0 UV-I 0 W/m 6,8 km/h (2 Bft)
17.01.2013 03:00 -3,9 C -4,9 C 96 % 1 lf 1015,5 hPa 0,0 l/m 0,00 h 0,0 UV-I 0 W/m 9,3 km/h (2 Bft)
17.01.2013 04:00 -4,1 C -4,9 C 96 % 1 lf 1015,7 hPa 0,0 l/m 0,00 h 0,0 UV-I 0 W/m 8,2 km/h (2 Bft)
17.01.2013 05:00 -4,4 C -5,4 C 96 % 1 lf 1016,2 hPa 0,0 l/m 0,00 h 0,0 UV-I 0 W/m 9,4 km/h (2 Bft)
17.01.2013 06:00 -4,6 C -5,4 C 96 % 0 lf 1016,6 hPa 0,0 l/m 0,00 h 0,0 UV-I 0 W/m 11,2 km/h (2 Bft)
17.01.2013 07:00 -4,6 C -5,4 C 96 % 0 lf 1016,9 hPa 0,0 l/m 0,00 h 0,0 UV-I 0 W/m 7,5 km/h (2 Bft)
17.01.2013 08:00 -4,7 C -5,4 C 96 % 0 lf 1017,5 hPa 0,0 l/m 0,00 h 0,0 UV-I 0 W/m 5,7 km/h (1 Bft)
17.01.2013 09:00 -4,7 C -5,2 C 96 % 0 lf 1018,1 hPa 0,0 l/m 0,00 h 0,0 UV-I 7 W/m 6,7 km/h (2 Bft)
17.01.2013 10:00 -4,5 C -4,9 C 96 % 0 lf 1018,4 hPa 0,0 l/m 0,00 h 0,0 UV-I 11 W/m 6,7 km/h (2 Bft)
17.01.2013 11:00 -4,1 C -4,2 C 95 % 0 lf 1018,4 hPa 0,0 l/m 0,00 h 0,0 UV-I 23 W/m 5,9 km/h (2 Bft)
17.01.2013 12:00 -3,3 C -3,2 C 94 % 0 lf 1018,2 hPa 0,2 l/m 0,00 h 0,0 UV-I 30 W/m 4,9 km/h (1 Bft)
17.01.2013 13:00 -3,1 C -3,2 C 93 % 0 lf 1017,7 hPa 0,0 l/m 0,00 h 0,0 UV-I 24 W/m 6,3 km/h (2 Bft)
17.01.2013 14:00 -3,1 C -3,7 C 93 % 0 lf 1017,6 hPa 0,0 l/m 0,00 h 0,0 UV-I 18 W/m 7,1 km/h (2 Bft)
17.01.2013 15:00 -3,1 C -3,7 C 94 % 0 lf 1017,8 hPa 0,0 l/m 0,00 h 0,0 UV-I 10 W/m 6,3 km/h (2 Bft)
17.01.2013 16:00 -3,0 C -3,8 C 95 % 0 lf 1018,1 hPa 0,0 l/m 0,00 h 0,0 UV-I 5 W/m 5,1 km/h (1 Bft)
17.01.2013 17:00 -3,0 C -3,8 C 95 % 0 lf 1018,3 hPa 0,0 l/m 0,00 h 0,0 UV-I 0 W/m 5,3 km/h (1 Bft)
17.01.2013 18:00 -3,0 C -3,8 C 96 % 0 lf 1018,2 hPa 0,0 l/m 0,00 h 0,0 UV-I 0 W/m 2,5 km/h (1 Bft)
17.01.2013 19:00 -3,0 C -3,8 C 96 % 0 lf 1017,9 hPa 0,0 l/m 0,00 h 0,0 UV-I 0 W/m 1,7 km/h (1 Bft)
17.01.2013 20:00 -3,0 C -3,8 C 97 % 0 lf 1017,6 hPa 0,0 l/m 0,00 h 0,0 UV-I 0 W/m 0,1 km/h (0 Bft)
17.01.2013 21:00 -3,0 C -3,8 C 96 % 0 lf 1017,4 hPa 0,0 l/m 0,00 h 0,0 UV-I 0 W/m 0,7 km/h (0 Bft)
17.01.2013 22:00 -2,8 C -3,8 C 96 % 0 lf 1017,3 hPa 0,0 l/m 0,00 h 0,0 UV-I 0 W/m 0,3 km/h (0 Bft)
17.01.2013 23:00 -2,7 C -3,2 C 97 % 0 lf 1016,7 hPa 0,0 l/m 0,00 h 0,0 UV-I 0 W/m 0,0 km/h (0 Bft)
18.01.2013 00:00 -2,4 C -3,5 C 97 % 0 lf 1015,9 hPa 0,0 l/m 0,00 h 0,0 UV-I 0 W/m 0,6 km/h (0 Bft)
18.01.2013 01:00 -3,0 C -5,5 C 96 % 1 lf 1015,3 hPa 0,0 l/m 0,00 h 0,0 UV-I 0 W/m 0,0 km/h (0 Bft)
18.01.2013 02:00 -4,1 C -6,5 C 96 % 1 lf 1014,8 hPa 0,0 l/m 0,00 h 0,0 UV-I 0 W/m 0,0 km/h (0 Bft)
18.01.2013 03:00 -5,1 C -7,5 C 95 % 0 lf 1014,4 hPa 0,0 l/m 0,00 h 0,0 UV-I 0 W/m 0,0 km/h (0 Bft)
18.01.2013 04:00 -6,0 C -6,8 C 95 % 1 lf 1013,8 hPa 0,0 l/m 0,00 h 0,0 UV-I 0 W/m 0,0 km/h (0 Bft)
18.01.2013 05:00 -4,5 C -4,5 C 97 % 1 lf 1013,2 hPa 0,0 l/m 0,00 h 0,0 UV-I 0 W/m 2,7 km/h (1 Bft)
18.01.2013 06:00 -2,9 C -3,8 C 98 % 2 lf 1012,9 hPa 0,0 l/m 0,00 h 0,0 UV-I 0 W/m 2,6 km/h (1 Bft)
18.01.2013 07:00 -2,6 C -3,8 C 98 % 1 lf 1012,8 hPa 0,0 l/m 0,00 h 0,0 UV-I 0 W/m 1,5 km/h (1 Bft)
18.01.2013 08:00 -2,6 C -3,5 C 98 % 1 lf 1012,5 hPa 0,0 l/m 0,00 h 0,0 UV-I 6 W/m 1,7 km/h (1 Bft)
18.01.2013 09:00 -2,3 C -2,9 C 98 % 4 lf 1011,9 hPa 0,0 l/m 0,00 h 0,0 UV-I 31 W/m 6,2 km/h (2 Bft)
18.01.2013 10:00 -1,9 C -2,8 C 96 % 15 lf 1011,4 hPa 0,0 l/m 0,00 h 0,0 UV-I 52 W/m 4,8 km/h (1 Bft)
18.01.2013 11:00 -1,1 C -1,7 C 94 % 6 lf 1010,5 hPa 0,0 l/m 0,00 h 0,0 UV-I 80 W/m 6,2 km/h (2 Bft)
18.01.2013 12:00 -0,2 C -0,3 C 89 % 0 lf 1009,7 hPa 0,0 l/m 0,00 h 0,0 UV-I 44 W/m 6,6 km/h (2 Bft)
18.01.2013 13:00 0,2 C -0,2 C 87 % 0 lf 1008,6 hPa 0,0 l/m 0,00 h 0,0 UV-I 53 W/m 5,3 km/h (1 Bft)
18.01.2013 14:00 -0,3 C -1,0 C 86 % 0 lf 1007,7 hPa 0,0 l/m 0,00 h 0,0 UV-I 23 W/m 4,7 km/h (1 Bft)
18.01.2013 15:00 -0,4 C -1,5 C 85 % 0 lf 1007,0 hPa 0,0 l/m 0,00 h 0,0 UV-I 14 W/m 3,9 km/h (1 Bft)
18.01.2013 16:00 -0,7 C -1,9 C 84 % 0 lf 1006,5 hPa 0,0 l/m 0,00 h 0,0 UV-I 8 W/m 6,6 km/h (2 Bft)
18.01.2013 17:00 -1,0 C -2,2 C 85 % 0 lf 1005,6 hPa 0,0 l/m 0,00 h 0,0 UV-I 0 W/m 6,8 km/h (2 Bft)
18.01.2013 18:00 -1,5 C -3,0 C 86 % 0 lf 1005,2 hPa 0,0 l/m 0,00 h 0,0 UV-I 0 W/m 4,8 km/h (1 Bft)
18.01.2013 19:00 -2,0 C -3,2 C 87 % 0 lf 1004,5 hPa 0,0 l/m 0,00 h 0,0 UV-I 0 W/m 6,1 km/h (2 Bft)
18.01.2013 20:00 -1,9 C -2,9 C 88 % 0 lf 1003,8 hPa 0,0 l/m 0,00 h 0,0 UV-I 0 W/m 11,3 km/h (2 Bft)
18.01.2013 21:00 -1,5 C -2,7 C 86 % 0 lf 1003,5 hPa 0,0 l/m 0,00 h 0,0 UV-I 0 W/m 17,2 km/h (3 Bft)
18.01.2013 22:00 -1,6 C -2,7 C 87 % 0 lf 1003,1 hPa 0,0 l/m 0,00 h 0,0 UV-I 0 W/m 15,8 km/h (3 Bft)
18.01.2013 23:00 -1,7 C -2,7 C 87 % 0 lf 1002,2 hPa 0,0 l/m 0,00 h 0,0 UV-I 0 W/m 13,4 km/h (3 Bft)
19.01.2013 00:00 -1,8 C -2,7 C 87 % 0 lf 1001,1 hPa 0,0 l/m 0,00 h 0,0 UV-I 0 W/m 15,4 km/h (3 Bft)
19.01.2013 01:00 -1,7 C -2,7 C 87 % 0 lf 1000,3 hPa 0,0 l/m 0,00 h 0,0 UV-I 0 W/m 13,6 km/h (3 Bft)
19.01.2013 02:00 -1,8 C -2,8 C 86 % 0 lf 1000,1 hPa 0,0 l/m 0,00 h 0,0 UV-I 0 W/m 18,0 km/h (3 Bft)
19.01.2013 03:00 -2,0 C -3,2 C 85 % 0 lf 1000,0 hPa 0,0 l/m 0,00 h 0,0 UV-I 0 W/m 16,4 km/h (3 Bft)
19.01.2013 04:00 -2,3 C -3,2 C 86 % 0 lf 999,7 hPa 0,0 l/m 0,00 h 0,0 UV-I 0 W/m 13,1 km/h (3 Bft)
19.01.2013 05:00 -2,5 C -3,6 C 86 % 0 lf 999,2 hPa 0,0 l/m 0,00 h 0,0 UV-I 0 W/m 13,5 km/h (3 Bft)
19.01.2013 06:00 -2,7 C -3,8 C 86 % 0 lf 999,0 hPa 0,0 l/m 0,00 h 0,0 UV-I 0 W/m 13,7 km/h (3 Bft)
19.01.2013 07:00 -3,1 C -4,2 C 85 % 0 lf 998,9 hPa 0,0 l/m 0,00 h 0,0 UV-I 0 W/m 15,0 km/h (3 Bft)
19.01.2013 08:00 -3,5 C -4,3 C 86 % 0 lf 998,8 hPa 0,0 l/m 0,00 h 0,0 UV-I 6 W/m 8,4 km/h (2 Bft)
19.01.2013 09:00 -3,7 C -4,3 C 86 % 0 lf 998,6 hPa 0,0 l/m 0,00 h 0,0 UV-I 27 W/m 11,6 km/h (2 Bft)
19.01.2013 10:00 -3,5 C -3,7 C 86 % 0 lf 998,7 hPa 0,0 l/m 0,00 h 0,0 UV-I 72 W/m 7,6 km/h (2 Bft)
19.01.2013 11:00 -3,1 C -3,0 C 85 % 0 lf 998,7 hPa 0,0 l/m 0,00 h 0,0 UV-I 100 W/m 9,1 km/h (2 Bft)
19.01.2013 12:00 -2,7 C -2,7 C 84 % 0 lf 998,5 hPa 0,0 l/m 0,00 h 0,0 UV-I 106 W/m 6,6 km/h (2 Bft)
19.01.2013 13:00 -2,5 C -2,7 C 83 % 0 lf 997,9 hPa 0,0 l/m 0,00 h 0,0 UV-I 112 W/m 8,4 km/h (2 Bft)
19.01.2013 14:00 -2,7 C -2,9 C 83 % 0 lf 997,6 hPa 0,0 l/m 0,00 h 0,0 UV-I 89 W/m 6,5 km/h (2 Bft)
19.01.2013 15:00 -2,9 C -3,5 C 82 % 0 lf 997,4 hPa 0,0 l/m 0,00 h 0,0 UV-I 52 W/m 7,4 km/h (2 Bft)
19.01.2013 16:00 -3,3 C -4,2 C 83 % 0 lf 997,5 hPa 0,0 l/m 0,00 h 0,0 UV-I 18 W/m 5,8 km/h (2 Bft)
19.01.2013 17:00 -3,6 C -4,5 C 84 % 0 lf 997,6 hPa 0,0 l/m 0,00 h 0,0 UV-I 0 W/m 6,9 km/h (2 Bft)
19.01.2013 18:00 -3,8 C -4,9 C 85 % 0 lf 997,6 hPa 0,0 l/m 0,00 h 0,0 UV-I 0 W/m 6,5 km/h (2 Bft)
19.01.2013 19:00 -3,8 C -4,9 C 86 % 0 lf 997,9 hPa 0,0 l/m 0,00 h 0,0 UV-I 0 W/m 4,5 km/h (1 Bft)
19.01.2013 20:00 -3,9 C -4,9 C 87 % 0 lf 997,9 hPa 0,0 l/m 0,00 h 0,0 UV-I 0 W/m 3,9 km/h (1 Bft)
19.01.2013 21:00 -4,0 C -4,9 C 86 % 0 lf 997,8 hPa 0,0 l/m 0,00 h 0,0 UV-I 0 W/m 5,0 km/h (1 Bft)
19.01.2013 22:00 -4,3 C -5,2 C 86 % 0 lf 997,9 hPa 0,0 l/m 0,00 h 0,0 UV-I 0 W/m 5,9 km/h (2 Bft)
19.01.2013 23:00 -4,6 C -5,4 C 86 % 0 lf 997,6 hPa 0,0 l/m 0,00 h 0,0 UV-I 0 W/m 6,8 km/h (2 Bft)
20.01.2013 00:00 -5,4 C -6,6 C 85 % 0 lf 997,6 hPa 0,0 l/m 0,00 h 0,0 UV-I 0 W/m 7,5 km/h (2 Bft)
20.01.2013 01:00 -5,8 C -6,8 C 87 % 0 lf 997,3 hPa 0,0 l/m 0,00 h 0,0 UV-I 0 W/m 6,2 km/h (2 Bft)
20.01.2013 02:00 -6,1 C -7,1 C 88 % 0 lf 997,0 hPa 0,0 l/m 0,00 h 0,0 UV-I 0 W/m 6,8 km/h (2 Bft)
20.01.2013 03:00 -6,0 C -7,0 C 88 % 0 lf 996,8 hPa 0,0 l/m 0,00 h 0,0 UV-I 0 W/m 9,0 km/h (2 Bft)
20.01.2013 04:00 -5,8 C -6,6 C 88 % 0 lf 996,4 hPa 0,0 l/m 0,00 h 0,0 UV-I 0 W/m 7,3 km/h (2 Bft)
20.01.2013 05:00 -5,8 C -6,6 C 89 % 0 lf 995,9 hPa 0,0 l/m 0,00 h 0,0 UV-I 0 W/m 6,0 km/h (2 Bft)
20.01.2013 06:00 -5,6 C -6,5 C 89 % 0 lf 995,7 hPa 0,0 l/m 0,00 h 0,0 UV-I 0 W/m 11,7 km/h (2 Bft)
20.01.2013 07:00 -5,5 C -6,1 C 89 % 0 lf 995,6 hPa 0,0 l/m 0,00 h 0,0 UV-I 0 W/m 8,9 km/h (2 Bft)
20.01.2013 08:00 -5,3 C -6,0 C 89 % 0 lf 995,5 hPa 0,0 l/m 0,00 h 0,0 UV-I 7 W/m 10,2 km/h (2 Bft)
20.01.2013 09:00 -5,1 C -5,4 C 89 % 0 lf 995,4 hPa 0,0 l/m 0,00 h 0,0 UV-I 17 W/m 8,7 km/h (2 Bft)
20.01.2013 10:00 -5,0 C -5,4 C 92 % 11 lf 995,3 hPa 0,2 l/m 0,00 h 0,0 UV-I 47 W/m 7,2 km/h (2 Bft)
20.01.2013 11:00 -4,8 C -5,1 C 92 % 11 lf 994,9 hPa 0,2 l/m 0,00 h 0,0 UV-I 58 W/m 9,4 km/h (2 Bft)
20.01.2013 12:00 -4,2 C -3,8 C 93 % 11 lf 994,1 hPa 0,4 l/m 0,07 h 0,0 UV-I 120 W/m 9,5 km/h (2 Bft)
20.01.2013 13:00 -4,0 C -4,0 C 94 % 11 lf 993,3 hPa 0,4 l/m 0,00 h 0,0 UV-I 63 W/m 11,1 km/h (2 Bft)
20.01.2013 14:00 -3,5 C -3,4 C 94 % 7 lf 992,7 hPa 0,2 l/m 0,00 h 0,0 UV-I 57 W/m 13,1 km/h (3 Bft)
20.01.2013 15:00 -3,0 C -3,4 C 96 % 7 lf 992,4 hPa 0,2 l/m 0,00 h 0,0 UV-I 33 W/m 11,2 km/h (2 Bft)
20.01.2013 16:00 -2,6 C -3,1 C 96 % 9 lf 992,2 hPa 0,2 l/m 0,00 h 0,0 UV-I 14 W/m 8,2 km/h (2 Bft)
20.01.2013 17:00 -2,3 C -3,0 C 96 % 11 lf 992,5 hPa 0,2 l/m 0,00 h 0,0 UV-I 0 W/m 8,0 km/h (2 Bft)
20.01.2013 18:00 -2,1 C -3,2 C 97 % 11 lf 992,7 hPa 0,0 l/m 0,00 h 0,0 UV-I 0 W/m 7,2 km/h (2 Bft)
20.01.2013 19:00 -2,1 C -3,2 C 97 % 11 lf 993,0 hPa 0,0 l/m 0,00 h 0,0 UV-I 0 W/m 3,6 km/h (1 Bft)
20.01.2013 20:00 -1,9 C -3,0 C 97 % 12 lf 993,5 hPa 0,0 l/m 0,00 h 0,0 UV-I 0 W/m 2,3 km/h (1 Bft)
20.01.2013 21:00 -1,4 C -2,7 C 97 % 14 lf 993,8 hPa 0,0 l/m 0,00 h 0,0 UV-I 0 W/m 12,1 km/h (2 Bft)
20.01.2013 22:00 -1,3 C -2,7 C 97 % 14 lf 994,1 hPa 0,0 l/m 0,00 h 0,0 UV-I 0 W/m 8,2 km/h (2 Bft)
20.01.2013 23:00 -1,3 C -2,7 C 97 % 14 lf 994,6 hPa 0,0 l/m 0,00 h 0,0 UV-I 0 W/m 4,5 km/h (1 Bft)
Min-Datum _ 18.01.13 18.01.13 14.01.13 14.01.13 20.01.13 - - - - 14.01.13
_ Min-Zeit 04:20 03:54 16:30 00:00 16:20 - - - - 00:00
Minimum _ -6,1 C -8,2 C 81 % 0 lf 992,0 hPa - - - - 0,0 km/h (0 Bft)
Max-Datum _ 18.01.13 18.01.13 17.01.13 15.01.13 17.01.13 16.01.13 20.01.13 14.01.13 20.01.13 20.01.13
_ Max-Zeit 13:32 12:54 20:30 12:30 10:22 05:18 12:06 00:00 12:08 14:24
Maximum _ 0,3 C 0,1 C 100 % 15 lf 1018,5 hPa 2,2 l/m 0,03 h 0,0 UV-I 186 W/m 33,5 km/h
O (5 Bft)
Durchschnitt _ -3,1 C -3,9 C 92 % 2 lf 1006,9 hPa #6,8 l/m #4 min. 0,0 UV-I 36 W/m 6,2 km/h (2 Bft)
© 2013 W. Hausmann